Home > Weather > Damascus > Past weeks

Flag for Syria Weather for the Past 2 Weeks in Damascus, Syria

Now
37 °F

Fog.


Feels Like: 37 °F
Forecast: 30 / 56 °F
Wind: No wind

Location: Damascus Int. Airport

Current Time: Feb 9, 2016 at 6:11:41 AM

Latest Report: Feb 9, 2016 at 5:00 AM


Visibility: 0 mi

Pressure: 30.27 "Hg (27.80 "Hg at 689m altitude)

Humidity: 100%

Dew point: 37 °F

Location of DamascusLocation

Historic Weather in Damascus — Graph

°F

Damascus Temperature Yesterday

Maximum temperature yesterday: 57 °F (at 2:00 PM)
Minimum temperature yesterday: 30 °F (at 7:00 AM)
Average temperature yesterday: 44 °F

High & Low Weather Summary for the Past Weeks

 TemperatureHumidityPressure
High66 °F (Feb 5, 2:00 PM)100% (Feb 2, 3:00 AM)30.45 "Hg (Feb 2, 3:00 AM)
Low14 °F (Jan 28, 7:00 AM)0% (Feb 4, 10:00 PM)29.83 "Hg (Feb 6, 2:00 PM)
Average42 °F55%30.20 "Hg
* Reported Jan 25 4:00 AM — Feb 9 4:00 AM, Damascus, Weather by CustomWeather, © 2016

Note: Actual official high and low records may vary slightly from our data, if they occured in-between our weather recording intervals... More about our weather records

Advertising

Damascus Weather History for the Previous 24 Hours

 ConditionsComfort  
Time TempWeatherWind HumidityBarometerVisibility
4:00 AM
Tue, Feb 9
39 °FFog.No wind61%30.27 "Hg0 mi
3:00 AM37 °FChilly.No wind93%30.27 "Hg0 mi
2:00 AM37 °FChilly.No wind93%30.27 "Hg0 mi
1:00 AM41 °FQuite cool.5 mph93%30.27 "Hg0 mi
12:00 AM41 °FFog.7 mph93%30.27 "Hg0 mi
11:00 PM
Mon, Feb 8
41 °FFog.12 mph93%30.27 "Hg1 mi
10:00 PM43 °FPassing clouds.12 mph87%30.24 "HgN/A
9:00 PM43 °FPassing clouds.9 mph81%30.24 "HgN/A
8:00 PM43 °FPassing clouds.9 mph81%30.24 "HgN/A
7:00 PM46 °FPassing clouds.9 mph76%30.21 "HgN/A
6:00 PM54 °FPassing clouds.7 mph51%30.18 "HgN/A
5:00 PM54 °FScattered clouds.5 mph51%30.18 "HgN/A
4:00 PM54 °FScattered clouds.5 mph58%30.15 "HgN/A
3:00 PM55 °FScattered clouds.No wind55%30.15 "HgN/A
2:00 PM57 °FScattered clouds.5 mph51%30.15 "HgN/A
1:00 PM54 °FBroken clouds.7 mph63%30.15 "HgN/A
12:00 PM52 °FScattered clouds.5 mph67%30.18 "HgN/A
11:00 AM48 °FScattered clouds.7 mph76%30.18 "HgN/A
10:00 AM43 °FScattered clouds.5 mph93%30.18 "Hg4 mi
9:00 AM41 °FFog.6 mph87%30.18 "Hg1 mi
8:00 AM36 °FFog.No wind93%30.15 "Hg0 mi
7:00 AM30 °FFog.No wind93%30.12 "Hg1 mi
6:00 AM34 °FClear.10 mph81%30.12 "Hg10 mi
Weather by CustomWeather, © 2016

See weather overviewHow to use our weather pages